SCP
0 0 0 0 0 0 0 0 0 0 0 0 -0 0 0 0 0 0 0 0 -0 -0 -0 -0 -0 0 0 0 0 0 0 0 0 0 0 0 0 0
0 0 0 0 0 0 0 0 0 0 0 0 0 0 0 0 0 0 0 0 0 0 0 0 0 0 0 0 0 0 0 0 0 0 0 0 0 0
0 0 0 0 0 0 0 0 0 0 0 0 0 0 0 0 0 0 0 0 0 0 0 0 0 0 0 0 0 0 0 0 0 0 0 0 0 0
0 0 0 0 0 0 -0 0 0 0 0 0 0 0 0 0 0 0 0 0 0 0 0 0 0 0 0 0 0 0 0 0 0 0 0 0 0 0
0 0 0 -0 0 0 -0 0 0 0 0 0 0 0 0 0 0 0 0 0 0 0 0 0 0 0 0 0 0 0 0 0 0 0 0 0 0 0
0 0 0 -0 -0 0 0 0 0 0 0 0 0 0 0 0 0 0 0 0 0 0 0 0 0 0 0 0 0 0 0 0 0 0 0 0 0 0
0 0 0 0 0 0 0 0 0 0 0 0 0 0 0 0 0 0 0 0 0 0 0 0 0 0 0 0 0 0 0 0 0 0 0 0 0 0
0 0 0 0 -0 -0 -0 0 0 0 0 0 0 0 0 0 0 0 0 0 0 0 0 0 0 0 0 0 0 0 0 0 0 0 0 0 0 0
0 0 0 0 0 0 -0 -0 0 0 0 0 0 0 0 0 0 0 0 0 0 0 0 0 0 0 0 0 0 0 0 0 0 0 0 0 0 0
-0 -0 0 0 0 0 0 0 0 0 0 0 0 0 0 0 0 0 0 0 0 0 0 0 0 0 0 0 0 0 0 0 0 0 0 0 0 0
-0 -0 0 0 0 0 0 0 0 0 0 -0 0 0 0 0 0 0 0 0 0 0 0 0 0 0 0 0 0 0 0 0 0 0 0 0 0 0
0 0 0 0 0 0 0 0 0 0 0 0 0 0 0 0 0 0 0 0 0 0 0 0 0 0 0 0 0 0 0 0 0 0 0 0 0 0
0 0 -0 -0 -0 -0 -0 0 0 0 0 0 0 0 0 0 0 0 0 0 0 0 0 0 0 0 0 0 0 0 0 0 0 0 0 0 0 0
-0 0 0 -0 -0 -0 0 0 0 0 0 0 0 0 0 0 0 0 0 0 0 0 0 0 0 0 0 0 0 0 0 0 0 0 0 0 0 0
0 -0 -0 -0 -0 0 0 0 0 0 0 0 0 0 0 0 0 0 0 0 0 0 0 0 0 0 0 0 0 0 0 0 0 0 0 0 0 0
0 0 0 0 0 0 0 0 0 0 0 0 0 0 0 0 0 0 0 0 0 0 0 0 0 0 0 0 0 0 0 0 0 0 0 0 0 0
0 0 0 0 0 0 0 0 0 0 0 0 0 0 0 0 0 0 0 0 0 0 0 0 0 0 0 0 0 0 0 0 0 0 0 0 0 0
0 0 0 0 0 0 0 0 0 0 0 0 0 0 0 0 0 0 0 0 0 0 0 0 0 0 0 0 0 0 0 0 0 0 0 0 0 0
0 0 0 0 0 0 0 0 0 0 0 0 0 0 0 0 0 0 0 0 0 0 0 0 0 0 0 0 -0 -0 0 -0 -0 -0 -0 -0 -0 0
0 0 0 0 0 0 0 0 0 0 0 0 0 0 0 0 0 0 0 0 0 0 0 0 0 0 -0 -0 -0 -0 0 0 -0 -0 -0 -0 -0 -0
0 0 0 0 0 0 0 0 0 0 0 0 0 0 0 0 0 0 0 0 0 0 0 0 0 -0 0 -0 0 0 0 0 0 0 0 -0 -0 -0
0 0 0 0 0 0 0 0 0 0 0 0 0 0 0 0 0 0 0 0 0 0 0 0 0 0 0 0 0 0 0 0 0 0 0 0 0 0
0 0 0 0 0 0 0 0 0 0 0 0 0 0 0 0 0 0 0 0 0 0 0 0 0 0 0 0 0 0 0 0 0 0 0 0 0 0
Wind_Speed_500mb
30 45 41 53 39 28 40 38 33 28 38 32 24 28 22 16 20 18 14 13 12 10 11 15 16 14 13 13 13 9 7 9 13 16 17 18 20 24
39 47 47 48 40 29 26 31 27 19 23 29 33 22 25 23 22 19 17 17 14 16 14 14 18 16 14 17 16 13 12 13 15 16 16 16 18 20
42 38 41 37 29 27 34 38 20 11 6 24 24 22 25 23 25 28 17 20 19 17 14 15 18 18 16 18 18 18 18 19 18 19 18 16 16 17
49 33 25 20 39 30 33 23 16 10 9 11 17 24 23 22 22 22 23 21 20 20 18 16 16 18 19 21 22 24 25 25 23 24 22 19 17 16
38 35 35 27 30 27 24 19 15 11 11 6 10 14 17 17 21 20 17 18 20 23 25 21 21 23 22 22 26 29 31 31 29 29 27 24 22 18
39 39 33 31 28 22 20 22 18 20 10 9 7 9 7 11 12 13 18 19 20 24 21 22 25 27 28 26 25 28 32 34 34 34 32 29 28 24
30 28 34 33 30 21 14 15 15 17 14 11 6 10 8 7 6 10 13 17 19 19 19 26 30 31 32 34 32 30 33 34 36 38 37 36 34 31
29 38 33 29 28 24 17 14 17 15 8 5 8 8 9 9 9 10 9 12 16 17 22 21 33 34 34 34 29 31 36 36 37 40 41 41 40 38
28 34 34 26 27 27 23 21 16 11 9 9 6 6 6 8 11 11 12 17 19 23 31 36 36 34 29 28 30 31 32 33 36 39 41 41 41 42
29 27 37 31 27 21 15 14 15 13 12 5 3 7 10 10 11 12 15 18 21 24 31 39 32 27 23 26 30 32 33 35 36 37 41 43 42 41
40 34 29 28 26 22 15 12 9 6 1 3 6 9 14 16 18 20 23 21 23 23 27 33 25 31 27 16 11 13 15 20 26 29 34 39 42 45
37 33 29 22 20 15 10 6 5 3 3 5 8 10 11 15 17 18 20 21 22 19 16 28 35 35 17 13 11 26 31 34 31 28 29 31 32 40
33 29 26 20 15 11 7 4 2 2 4 5 7 9 11 14 17 19 20 21 21 20 26 28 32 36 30 41 38 36 31 34 39 41 42 40 40 40
24 22 18 14 9 5 2 1 4 7 10 12 14 14 15 17 19 20 20 21 21 22 24 26 30 32 35 42 45 44 41 35 34 32 30 32 35 41
16 16 13 9 5 0 2 5 6 7 9 10 10 10 11 14 16 18 18 18 17 18 21 23 24 26 29 32 41 45 54 47 25 46 48 42 40 41
16 15 12 9 6 5 6 7 8 11 12 13 14 15 15 14 14 14 14 15 16 20 23 24 26 28 27 27 28 30 33 36 45 47 50 51 49 46
16 18 17 14 9 7 8 9 9 10 9 10 11 11 11 13 14 16 17 17 16 16 17 19 24 26 26 26 26 31 36 38 42 46 49 49 46 49
22 17 7 2 3 6 5 5 3 5 6 8 9 9 10 12 14 15 15 15 16 19 22 26 28 25 21 24 29 36 39 42 44 46 47 53 53 49
19 5 4 1 2 2 1 3 3 5 8 7 7 8 10 11 12 13 15 16 18 20 24 28 31 35 39 43 32 36 42 46 51 50 48 48 51 49
15 7 5 5 5 6 8 10 12 11 10 9 10 11 11 14 15 16 18 20 21 21 22 25 31 39 41 34 33 33 33 41 47 49 51 50 45 44
16 11 6 6 7 8 9 9 10 9 8 8 6 8 11 14 17 21 24 26 27 30 33 38 42 40 30 20 29 35 35 33 34 41 47 52 59 53
14 8 8 9 9 9 8 7 6 5 6 7 10 13 16 19 24 27 30 30 33 35 37 36 30 28 30 37 37 36 39 34 29 29 35 40 47 47
16 13 16 15 14 11 9 8 7 6 12 16 19 22 25 25 29 28 28 29 28 26 27 27 28 29 33 34 33 34 37 41 43 42 41 39 35 34
Wind_Direction_500mb
175 186 173 184 198 194 200 209 211 192 204 207 214 216 208 201 207 196 212 235 245 267 283 286 282 280 261 249 255 270 297 318 324 334 341 354 0 9
180 182 175 191 202 189 188 194 208 230 203 207 208 200 198 202 206 202 221 228 259 273 280 289 284 286 275 258 256 272 286 298 306 317 325 340 343 360
165 173 160 179 188 181 172 167 180 156 213 194 197 197 197 207 213 220 231 238 247 267 291 285 301 298 289 265 259 262 270 280 290 299 309 317 325 341
180 184 192 174 166 162 162 166 180 184 197 200 203 199 200 215 221 229 237 246 255 266 275 274 302 303 290 277 273 268 266 271 279 286 294 301 306 321
173 186 190 178 174 174 176 188 205 217 190 226 194 190 208 226 235 241 255 271 260 275 279 293 308 311 302 292 281 275 273 270 274 282 286 290 292 298
192 198 205 206 193 212 221 221 220 213 196 173 164 168 204 222 235 254 270 289 285 274 285 295 301 295 297 293 286 282 276 273 275 279 281 280 282 284
182 166 188 191 203 224 197 211 223 182 150 150 134 148 189 214 221 253 265 274 286 281 292 296 299 302 306 293 289 287 282 274 270 272 274 276 277 279
184 171 168 178 200 191 207 177 151 130 133 165 178 180 202 218 233 245 260 273 277 275 283 290 293 299 304 294 292 287 285 282 277 275 274 274 275 277
151 161 167 178 182 178 162 152 141 147 169 191 202 217 232 242 256 261 278 280 282 286 291 293 294 301 297 289 286 283 286 286 280 275 273 274 275 275
149 161 147 139 131 133 142 156 165 176 202 203 252 266 274 273 271 275 270 272 278 287 288 297 311 321 312 300 281 280 285 291 291 288 281 278 277 276
126 125 127 129 127 129 139 147 151 160 191 298 309 312 312 318 314 305 300 297 300 305 304 309 329 325 335 331 349 18 345 321 319 311 295 288 284 283
131 130 125 122 120 120 118 123 97 43 349 330 318 315 319 318 319 319 318 318 319 328 312 319 317 331 332 296 308 321 320 318 318 322 326 320 311 298
124 125 124 122 120 112 130 106 48 357 316 293 296 306 313 317 323 327 326 325 325 316 308 310 313 322 322 315 318 323 325 314 303 300 297 293 291 294
136 134 130 134 127 139 145 328 320 322 322 320 320 321 320 319 320 320 322 325 325 320 315 315 314 319 319 321 325 329 326 328 318 310 307 307 301 296
141 137 132 121 113 116 330 337 340 346 349 345 338 334 330 331 334 336 338 337 332 329 328 327 326 325 325 326 326 336 331 339 334 323 320 319 313 307
143 139 139 141 138 110 86 64 34 14 358 352 347 341 337 337 334 329 329 330 328 331 335 336 338 339 343 345 343 342 343 347 333 334 330 328 326 320
146 132 115 99 73 41 1 346 353 339 332 345 354 1 4 10 12 14 12 9 7 7 6 3 3 4 6 8 8 2 356 352 348 346 340 338 343 344
137 117 80 63 355 348 345 344 10 24 35 36 29 26 25 23 24 23 21 20 17 10 0 358 359 358 13 30 18 3 355 346 342 344 345 344 342 347
161 158 16 302 31 358 276 202 154 121 97 84 76 67 56 46 44 42 43 32 25 16 11 3 6 15 22 22 29 6 341 340 342 346 346 348 345 347
173 194 298 252 237 199 174 150 130 114 103 85 62 51 47 39 34 40 46 45 42 37 30 28 29 30 27 18 12 14 353 350 353 351 346 343 341 344
189 198 218 230 189 164 146 126 107 91 75 59 48 58 64 69 73 69 63 59 54 49 42 38 32 28 25 28 34 36 33 24 11 8 357 353 354 352
198 219 237 218 194 166 148 134 125 125 107 97 97 96 96 91 85 77 70 61 53 46 43 42 37 29 26 31 32 28 29 39 37 26 20 16 7 356
205 236 223 200 184 173 166 156 143 132 119 117 116 111 98 89 77 69 63 61 59 53 51 43 36 28 28 28 27 26 26 25 22 27 29 24 19 10
Wind_Speed_850mb
30 45 41 53 39 28 40 38 33 28 38 32 24 28 22 16 20 18 14 13 12 10 11 15 16 14 13 13 13 9 7 9 13 16 17 18 20 24
39 47 47 48 40 29 26 31 27 19 23 29 33 22 25 23 22 19 17 17 14 16 14 14 18 16 14 17 16 13 12 13 15 16 16 16 18 20
42 38 41 37 29 27 34 38 20 11 6 24 24 22 25 23 25 28 17 20 19 17 14 15 18 18 16 18 18 18 18 19 18 19 18 16 16 17
49 33 25 20 39 30 33 23 16 10 9 11 17 24 23 22 22 22 23 21 20 20 18 16 16 18 19 21 22 24 25 25 23 24 22 19 17 16
38 35 35 27 30 27 24 19 15 11 11 6 10 14 17 17 21 20 17 18 20 23 25 21 21 23 22 22 26 29 31 31 29 29 27 24 22 18
39 39 33 31 28 22 20 22 18 20 10 9 7 9 7 11 12 13 18 19 20 24 21 22 25 27 28 26 25 28 32 34 34 34 32 29 28 24
30 28 34 33 30 21 14 15 15 17 14 11 6 10 8 7 6 10 13 17 19 19 19 26 30 31 32 34 32 30 33 34 36 38 37 36 34 31
29 38 33 29 28 24 17 14 17 15 8 5 8 8 9 9 9 10 9 12 16 17 22 21 33 34 34 34 29 31 36 36 37 40 41 41 40 38
28 34 34 26 27 27 23 21 16 11 9 9 6 6 6 8 11 11 12 17 19 23 31 36 36 34 29 28 30 31 32 33 36 39 41 41 41 42
29 27 37 31 27 21 15 14 15 13 12 5 3 7 10 10 11 12 15 18 21 24 31 39 32 27 23 26 30 32 33 35 36 37 41 43 42 41
40 34 29 28 26 22 15 12 9 6 1 3 6 9 14 16 18 20 23 21 23 23 27 33 25 31 27 16 11 13 15 20 26 29 34 39 42 45
37 33 29 22 20 15 10 6 5 3 3 5 8 10 11 15 17 18 20 21 22 19 16 28 35 35 17 13 11 26 31 34 31 28 29 31 32 40
33 29 26 20 15 11 7 4 2 2 4 5 7 9 11 14 17 19 20 21 21 20 26 28 32 36 30 41 38 36 31 34 39 41 42 40 40 40
24 22 18 14 9 5 2 1 4 7 10 12 14 14 15 17 19 20 20 21 21 22 24 26 30 32 35 42 45 44 41 35 34 32 30 32 35 41
16 16 13 9 5 0 2 5 6 7 9 10 10 10 11 14 16 18 18 18 17 18 21 23 24 26 29 32 41 45 54 47 25 46 48 42 40 41
16 15 12 9 6 5 6 7 8 11 12 13 14 15 15 14 14 14 14 15 16 20 23 24 26 28 27 27 28 30 33 36 45 47 50 51 49 46
16 18 17 14 9 7 8 9 9 10 9 10 11 11 11 13 14 16 17 17 16 16 17 19 24 26 26 26 26 31 36 38 42 46 49 49 46 49
22 17 7 2 3 6 5 5 3 5 6 8 9 9 10 12 14 15 15 15 16 19 22 26 28 25 21 24 29 36 39 42 44 46 47 53 53 49
19 5 4 1 2 2 1 3 3 5 8 7 7 8 10 11 12 13 15 16 18 20 24 28 31 35 39 43 32 36 42 46 51 50 48 48 51 49
15 7 5 5 5 6 8 10 12 11 10 9 10 11 11 14 15 16 18 20 21 21 22 25 31 39 41 34 33 33 33 41 47 49 51 50 45 44
16 11 6 6 7 8 9 9 10 9 8 8 6 8 11 14 17 21 24 26 27 30 33 38 42 40 30 20 29 35 35 33 34 41 47 52 59 53
14 8 8 9 9 9 8 7 6 5 6 7 10 13 16 19 24 27 30 30 33 35 37 36 30 28 30 37 37 36 39 34 29 29 35 40 47 47
16 13 16 15 14 11 9 8 7 6 12 16 19 22 25 25 29 28 28 29 28 26 27 27 28 29 33 34 33 34 37 41 43 42 41 39 35 34
Wind_Direction_850mb
175 186 173 184 198 194 200 209 211 192 204 207 214 216 208 201 207 196 212 235 245 267 283 286 282 280 261 249 255 270 297 318 324 334 341 354 0 9
180 182 175 191 202 189 188 194 208 230 203 207 208 200 198 202 206 202 221 228 259 273 280 289 284 286 275 258 256 272 286 298 306 317 325 340 343 360
165 173 160 179 188 181 172 167 180 156 213 194 197 197 197 207 213 220 231 238 247 267 291 285 301 298 289 265 259 262 270 280 290 299 309 317 325 341
180 184 192 174 166 162 162 166 180 184 197 200 203 199 200 215 221 229 237 246 255 266 275 274 302 303 290 277 273 268 266 271 279 286 294 301 306 321
173 186 190 178 174 174 176 188 205 217 190 226 194 190 208 226 235 241 255 271 260 275 279 293 308 311 302 292 281 275 273 270 274 282 286 290 292 298
192 198 205 206 193 212 221 221 220 213 196 173 164 168 204 222 235 254 270 289 285 274 285 295 301 295 297 293 286 282 276 273 275 279 281 280 282 284
182 166 188 191 203 224 197 211 223 182 150 150 134 148 189 214 221 253 265 274 286 281 292 296 299 302 306 293 289 287 282 274 270 272 274 276 277 279
184 171 168 178 200 191 207 177 151 130 133 165 178 180 202 218 233 245 260 273 277 275 283 290 293 299 304 294 292 287 285 282 277 275 274 274 275 277
151 161 167 178 182 178 162 152 141 147 169 191 202 217 232 242 256 261 278 280 282 286 291 293 294 301 297 289 286 283 286 286 280 275 273 274 275 275
149 161 147 139 131 133 142 156 165 176 202 203 252 266 274 273 271 275 270 272 278 287 288 297 311 321 312 300 281 280 285 291 291 288 281 278 277 276
126 125 127 129 127 129 139 147 151 160 191 298 309 312 312 318 314 305 300 297 300 305 304 309 329 325 335 331 349 18 345 321 319 311 295 288 284 283
131 130 125 122 120 120 118 123 97 43 349 330 318 315 319 318 319 319 318 318 319 328 312 319 317 331 332 296 308 321 320 318 318 322 326 320 311 298
124 125 124 122 120 112 130 106 48 357 316 293 296 306 313 317 323 327 326 325 325 316 308 310 313 322 322 315 318 323 325 314 303 300 297 293 291 294
136 134 130 134 127 139 145 328 320 322 322 320 320 321 320 319 320 320 322 325 325 320 315 315 314 319 319 321 325 329 326 328 318 310 307 307 301 296
141 137 132 121 113 116 330 337 340 346 349 345 338 334 330 331 334 336 338 337 332 329 328 327 326 325 325 326 326 336 331 339 334 323 320 319 313 307
143 139 139 141 138 110 86 64 34 14 358 352 347 341 337 337 334 329 329 330 328 331 335 336 338 339 343 345 343 342 343 347 333 334 330 328 326 320
146 132 115 99 73 41 1 346 353 339 332 345 354 1 4 10 12 14 12 9 7 7 6 3 3 4 6 8 8 2 356 352 348 346 340 338 343 344
137 117 80 63 355 348 345 344 10 24 35 36 29 26 25 23 24 23 21 20 17 10 0 358 359 358 13 30 18 3 355 346 342 344 345 344 342 347
161 158 16 302 31 358 276 202 154 121 97 84 76 67 56 46 44 42 43 32 25 16 11 3 6 15 22 22 29 6 341 340 342 346 346 348 345 347
173 194 298 252 237 199 174 150 130 114 103 85 62 51 47 39 34 40 46 45 42 37 30 28 29 30 27 18 12 14 353 350 353 351 346 343 341 344
189 198 218 230 189 164 146 126 107 91 75 59 48 58 64 69 73 69 63 59 54 49 42 38 32 28 25 28 34 36 33 24 11 8 357 353 354 352
198 219 237 218 194 166 148 134 125 125 107 97 97 96 96 91 85 77 70 61 53 46 43 42 37 29 26 31 32 28 29 39 37 26 20 16 7 356
205 236 223 200 184 173 166 156 143 132 119 117 116 111 98 89 77 69 63 61 59 53 51 43 36 28 28 28 27 26 26 25 22 27 29 24 19 10